Overview Statistics Trail Chart Weather Telemetry Raw packets
 

This is the latest recevied weather packets stored in our database for station/object LU4EGV-13. If no packets are shown the sender has not sent any weather packets the latest 10 day(s).

<< 19 20 21 22 23 24 25 >>
Time Temp. Humidity Pressure Rain* Wind** Luminosity Snow
1788387264 21.67° C 54% 1005.9 hPa 0 mm - - -
1788386660 21.67° C 54% 1006 hPa 0 mm - - -
1788386053 21.67° C 54% 1006 hPa 0 mm - - -
1788385446 21.67° C 53% 1005.9 hPa 0 mm - - -
1788384841 21.67° C 52% 1006 hPa 0 mm - - -
1788384234 22.78° C 51% 1006.1 hPa 0 mm - - -
1788383627 22.78° C 50% 1006 hPa 0 mm - - -
1788383021 23.89° C 48% 1006.2 hPa 0 mm - - -
1788382425 24.44° C 45% 1006.1 hPa 0 mm - - -
1788381809 24.44° C 44% 1006 hPa 0 mm - - -
1788381205 24.44° C 45% 1006.2 hPa 0 mm - - -
1788380600 24.44° C 45% 1006 hPa 0 mm - - -
1788379991 24.44° C 44% 1006.1 hPa 0 mm - - -
1788379385 25° C 44% 1006.1 hPa 0 mm - - -
1788378778 25.56° C 43% 1006.2 hPa 0 mm - - -
1788378171 25.56° C 43% 1005.8 hPa 0 mm - - -
1788377566 25° C 47% 1005.7 hPa 0 mm - - -
1788376959 24.44° C 47% 1006.2 hPa 0 mm - - -
1788376353 24.44° C 45% 1006.3 hPa 0 mm - - -
1788375757 24.44° C 43% 1006.6 hPa 0 mm - - -
1788375141 24.44° C 42% 1006.7 hPa 0 mm - - -
1788374536 24.44° C 43% 1006.7 hPa 0 mm - - -
1788373929 25° C 43% 1006.4 hPa 0 mm - - -
1788373323 24.44° C 44% 1006.6 hPa 0 mm - - -
1788372716 25° C 41% 1007 hPa 0 mm - - -

* Rain latest hour (hover to see other rain measurements)
** Current wind speed in m/s (hover to see current wind gust speed)